Location: Vista Encantada
(35.1109°N, 106.5681°W)
Time: 08:36:21
(UTC+00:00)

Cosmos 1602 Rocket - Pass Details

Date: 29 October 2020
Orbit: 603 x 634 km, 82.5° (Epoch: 04 December)

Event Time Altitude Azimuth Distance (km) Brightness Sun altitude
Rises 12:41:42 0° 187° (S) 2,883 7.0 -9.5°
Reaches altitude 10° 12:43:54 10° 188° (S) 1,986 6.2 -9.1°
Maximum altitude 12:48:19 84° 277° (W) 635 3.6 -8.2°
Drops below altitude 10° 12:52:47 10° 5° (N) 2,016 6.1 -7.3°
Sets 12:55:03 0° 6° (N) 2,930 7.0 -6.8°
